Location: Cosy Dell
(34.2789°N, 117.4537°W)
Time: 05:25:35
(UTC+00:00)

CZ-4C R/B - Visible Passes

Search period start: 20 October 2020 00:00
Search period end: 30 October 2020 00:00
Orbit: 627 x 1375 km, 63.4° (Epoch: 19 October)

Date Brightness Start Highest point End Pass type
(mag) Time Alt. Az. Time Alt. Az. Time Alt. Az.
25 Oct 5.1 04:22:56 10° N 04:23:09 11° N 04:23:09 11° N visible
26 Oct 5.3 04:55:30 10° NNW 04:55:37 11° NNW 04:55:37 11° NNW visible
27 Oct 4.9 03:41:46 10° N 03:42:58 13° N 03:42:58 13° N visible
28 Oct 4.9 04:14:07 10° NNW 04:15:31 16° N 04:15:31 16° N visible
29 Oct 4.7 03:00:41 10° N 03:02:56 14° NNE 03:02:56 14° NNE visible
29 Oct 5.1 04:47:05 10° NNW 04:48:08 15° NNW 04:48:08 15° NNW visible
